Location: Bailleul
(50.3375°N, 2.8513°E)
Time: 00:23:50
(UTC+00:00)

Cosmos 1867 - Pass Details

Date: 24 October 2021
Orbit: 773 x 803 km, 65.0° (Epoch: 30 November)

Event Time Altitude Azimuth Distance (km) Brightness Sun altitude
Rises 05:42:38 0° 201° (SSW) 3,277 6.6 -7.5°
Reaches altitude 10° 05:45:05 10° 197° (SSW) 2,356 6.0 -7.2°
Maximum altitude 05:50:20 53° 122° (ESE) 981 4.6 -6.3°
Drops below altitude 10° 05:55:39 10° 47° (NE) 2,386 6.6 -5.5°
Sets 05:58:08 0° 43° (NE) 3,322 7.3 -5.1°
